Flag for Italy Weather past 2 weeks in Firenze, Italy

Now
73 °F

Scattered clouds.


Feels Like: 77 °F
Forecast: 49 / 74 °F
Wind: 13 mph from West

Location: Florence / Peretola

Current Time: May 25, 2015 at 3:58:15 PM

Latest Report: May 25, 2015 at 3:20 PM


Visibility: N/A

Pressure: 29.86 "Hg

Humidity: 47%

Dew point: 52 °F

Location of FirenzeLocation

Historic Weather in Firenze — Graph

°F

Firenze temperature yesterday

Maximum temperature yesterday: 70 °F (at 2:20 PM)
Minimum temperature yesterday: 54 °F (at 5:50 AM)
Average temperature yesterday: 61 °F

Past Weeks' High & Low Weather Summary

 TemperatureHumidityPressure
High86 °F (May 18, 2:50 PM)100% (May 16, 3:50 AM)30.27 "Hg (May 16, 3:50 AM)
Low48 °F (May 25, 5:50 AM)25% (May 11, 1:50 PM)29.65 "Hg (May 15, 12:20 PM)
Average65 °F69%29.96 "Hg
* Reported May 10 2:20 PM — May 25 2:20 PM, Firenze, Weather by CustomWeather, © 2015

Note: Actual official high and low records may vary slightly from our data, if they occured in-between our weather recording intervals... More about our weather records

Advertising

Firenze weather history for previous 24 hours

 ConditionsComfort  
Time TempWeatherWind HumidityBarometerVisibility
2:20 PM
Mon, May 25
75 °FScattered clouds.8 mph44%29.89 "HgN/A
1:50 PM75 °FScattered clouds.6 mph44%29.89 "HgN/A
1:20 PM73 °FScattered clouds.7 mph47%29.89 "HgN/A
12:50 PM73 °FScattered clouds.5 mph47%29.89 "HgN/A
12:20 PM72 °FPassing clouds.6 mph50%29.92 "HgN/A
11:50 AM72 °FSunny.3 mph50%29.92 "Hg10 mi
11:20 AM70 °FSunny.3 mph57%29.92 "Hg10 mi
10:50 AM68 °FSunny.No wind60%29.92 "Hg10 mi
10:20 AM66 °FSunny.2 mph68%29.92 "Hg10 mi
9:50 AM63 °FSunny.2 mph73%29.95 "Hg10 mi
9:20 AM63 °FSunny.2 mph73%29.95 "Hg10 mi
8:50 AM61 °FSunny.No wind77%29.95 "Hg10 mi
8:20 AM59 °FSunny.No wind77%29.95 "Hg10 mi
7:20 AM54 °FSunny.3 mph94%29.95 "Hg10 mi
6:50 AM52 °FSunny.No wind94%29.95 "Hg10 mi
6:20 AM50 °FClear.2 mph94%29.95 "Hg10 mi
5:50 AM48 °FClear.No wind94%29.98 "Hg10 mi
5:20 AM50 °FClear.1 mph94%29.95 "Hg10 mi
4:50 AM50 °FClear.3 mph94%29.95 "Hg10 mi
4:20 AM50 °FClear.2 mph94%29.95 "Hg10 mi
3:50 AM50 °FClear.6 mph94%29.95 "Hg10 mi
3:20 AM50 °FClear.6 mph94%29.98 "Hg10 mi
2:50 AM52 °FClear.5 mph88%29.95 "Hg10 mi
2:20 AM52 °FClear.5 mph94%29.95 "Hg10 mi
1:50 AM52 °FClear.5 mph94%29.98 "Hg10 mi
1:20 AM52 °FClear.6 mph94%29.98 "Hg10 mi
12:50 AM54 °FPassing clouds.3 mph88%29.98 "HgN/A
12:20 AM54 °FClear.7 mph88%29.98 "Hg10 mi
11:50 PM
Sun, May 24
55 °FPassing clouds.5 mph88%29.98 "HgN/A
11:20 PM55 °FClear.3 mph88%29.95 "Hg10 mi
10:50 PM55 °FClear.5 mph88%29.95 "Hg10 mi
10:20 PM55 °FClear.2 mph88%29.95 "Hg10 mi
9:50 PM57 °FClear.2 mph82%29.95 "Hg10 mi
9:20 PM59 °FSunny.3 mph82%29.95 "Hg10 mi
8:50 PM61 °FSunny.3 mph77%29.92 "Hg10 mi
8:20 PM64 °FSunny.2 mph68%29.92 "Hg10 mi
7:50 PM66 °FScattered clouds.5 mph60%29.92 "HgN/A
7:20 PM66 °FPartly sunny.2 mph68%29.92 "HgN/A
6:50 PM68 °FPartly sunny.No wind56%29.92 "HgN/A
5:50 PM66 °FPartly sunny.5 mph56%29.92 "HgN/A
5:20 PM66 °FPartly sunny.6 mph60%29.95 "HgN/A
4:50 PM66 °FPartly sunny.8 mph56%29.95 "HgN/A
4:20 PM66 °FPartly sunny.10 mph56%29.95 "HgN/A
3:50 PM66 °FPartly sunny.9 mph56%29.95 "HgN/A
3:20 PM68 °FPartly sunny.12 mph53%29.95 "HgN/A
Weather by CustomWeather, © 2015

See weather overviewHow to use our weather pages